Las Vegas, NV

10:00 AM PDT on October 18, 2017 (GMT -0700)
McCarran International

Weather History for KLAS - February, 2013

Change the Weather History Date:

Monday, February 25, 2013

  Actual Average Record
Temperature  
Mean Temperature 47 °F 55 °F  
Max Temperature 58 °F 65 °F 85 °F (1986)
Min Temperature 35 °F 46 °F 26 °F (1960)
Degree Days  
Heating Degree Days 18 10  
Month to date heating degree days 326 311  
Since 1 July heating degree days 1590 1663  
Cooling Degree Days 0 0  
Month to date cooling degree days 0 0  
Year to date cooling degree days 0 0  
Moisture  
Dew Point 10 °F    
Average Humidity 25    
Maximum Humidity 35    
Minimum Humidity 14    
Precipitation  
Precipitation 0.00 in 0.03 in 0.77 in (2003)
Month to date precipitation T 0.68  
Year to date precipitation 0.43 1.22  
Snow  
Snow 0.00 in 0.00 in 0.60 in (1987)
Month to date snowfall 0.0 0.1  
Since 1 July snowfall T 0.3  
Snow Depth 0.00 in    
Sea Level Pressure  
Sea Level Pressure 30.11 in    
Wind  
Wind Speed 5 mph (SSW)    
Max Wind Speed 12 mph    
Max Gust Speed 14 mph    
Visibility 10 miles    
Events      
T = Trace of Precipitation, MM = Missing Value Source: NWS Daily Summary

Daily Weather History Graph

Daily Weather History Graph

Search for Another Location

Airport or City:

Trip Planner

Search our weather history database for the weather conditions in past years. The results will help you decide how hot, cold, wet, or windy it might be!

Date:

Astronomy

Feb. 25, 2013 Rise Set
Actual Time 6:15 AM PST 5:32 PM PST
Civil Twilight 5:49 AM PST 5:57 PM PST
Nautical Twilight 5:19 AM PST 6:27 PM PST
Astronomical Twilight 4:50 AM PST 6:57 PM PST
Moon 5:47 PM PST (2/25) 5:49 AM PST (2/25)
Length of Visible Light 12h 08m
Length of Day
11h 16m
Full, 100% of the Moon is Illuminated
Feb 25
Full
Feb 25
Full
Mar 4
Last Quarter
Mar 11
New
Mar 19
First Quarter

Hourly Weather History & Observations

Time (PST) Temp. Windchill Dew Point Humidity Pressure Visibility Wind Dir Wind Speed Gust Speed Precip Events Conditions
12:56 AM 39.9 °F 34.5 °F 12.0 °F 32% 30.21 in 10.0 mi WSW 8.1 mph - N/A   Partly Cloudy
1:56 AM 39.0 °F 32.8 °F 10.9 °F 32% 30.21 in 10.0 mi SW 9.2 mph - N/A   Partly Cloudy
2:56 AM 37.0 °F 31.6 °F 10.9 °F 34% 30.20 in 10.0 mi SW 6.9 mph - N/A   Partly Cloudy
3:56 AM 37.0 °F 33.3 °F 10.9 °F 34% 30.21 in 10.0 mi SSW 4.6 mph - N/A   Partly Cloudy
4:56 AM 36.0 °F 33.3 °F 10.9 °F 36% 30.21 in 10.0 mi SSW 3.5 mph - N/A   Partly Cloudy
5:56 AM 36.0 °F 31.1 °F 10.9 °F 36% 30.22 in 10.0 mi SW 5.8 mph - N/A   Clear
6:56 AM 37.0 °F 32.4 °F 12.0 °F 36% 30.25 in 10.0 mi South 5.8 mph - N/A   Clear
7:56 AM 42.1 °F 39.2 °F 10.9 °F 28% 30.25 in 10.0 mi South 4.6 mph - N/A   Clear
8:56 AM 44.1 °F 41.5 °F 10.9 °F 26% 30.23 in 10.0 mi SE 4.6 mph - N/A   Clear
9:56 AM 46.0 °F 43.9 °F 10.0 °F 23% 30.22 in 10.0 mi Variable 4.6 mph - N/A   Clear
10:56 AM 48.9 °F - 9.0 °F 20% 30.19 in 10.0 mi Calm Calm - N/A   Clear
11:56 AM 51.1 °F - 8.1 °F 18% 30.15 in 10.0 mi Calm Calm - N/A   Clear
12:56 PM 53.1 °F - 9.0 °F 17% 30.09 in 10.0 mi SSW 8.1 mph - N/A   Clear
1:56 PM 55.9 °F - 8.1 °F 15% 30.06 in 10.0 mi South 3.5 mph - N/A   Partly Cloudy
2:56 PM 57.0 °F - 8.1 °F 14% 30.03 in 10.0 mi Variable 4.6 mph - N/A   Partly Cloudy
3:56 PM 57.0 °F - 8.1 °F 14% 30.00 in 10.0 mi East 6.9 mph - N/A   Partly Cloudy
4:56 PM 55.0 °F - 9.0 °F 16% 29.99 in 10.0 mi ESE 5.8 mph - N/A   Clear
5:56 PM 53.1 °F - 8.1 °F 16% 29.99 in 10.0 mi ENE 3.5 mph - N/A   Clear
6:56 PM 52.0 °F - 8.1 °F 17% 29.98 in 10.0 mi Calm Calm - N/A   Partly Cloudy
7:56 PM 51.1 °F - 10.0 °F 19% 29.97 in 10.0 mi South 4.6 mph - N/A   Partly Cloudy
8:56 PM 46.9 °F - 12.0 °F 24% 29.97 in 10.0 mi WSW 6.9 mph - N/A   Clear
9:56 PM 45.0 °F 41.8 °F 12.9 °F 27% 29.99 in 10.0 mi WSW 5.8 mph - N/A   Clear
10:56 PM 44.1 °F 39.5 °F 12.0 °F 27% 30.01 in 10.0 mi SSW 8.1 mph - N/A   Clear
11:56 PM 44.1 °F - 12.0 °F 27% 30.02 in 10.0 mi Calm Calm - N/A   Clear